Tracking 35274 objects as of 10-Sep-2026
HD Live streaming from Space Station
objects crossing your sky now

ASTROCAST-0105


ASTROCAST-0105 is no longer on orbit
ASTROCAST-0105 is classified as:


NORAD ID: 47517
Int'l Code: 2021-006DH
Launch date: January 24, 2021
Source: (SWTZ)
Launch site: AIR FORCE EASTERN TEST RANGE (AFETR)
Decay date: 2026-06-12

Uplink (MHz):
Downlink (MHz):
Beacon (MHz):
Mode:
Call sign:
Status: Unknown

Your satellite tracking list
Your tracking list is empty




NASA's NSSDC Master Catalog

Two Line Element Set (TLE):
1 47517U 21006DH  26162.92362392  .10667366  24045-5  10199-2 0  9993
2 47517  97.1875 227.6456 0016273 259.7637 100.1827 16.38098175300137
Source of the keplerian elements: AFSPC